Location: Santa Maria di Sala
(45.5070°N, 12.0300°E)
Time: 22:23:24
(UTC+02:00)

ISS - Visible Passes

Search period start: 28 September 2023 00:00
Search period end: 08 October 2023 00:00
Orbit: 413 x 421 km, 51.6° (Epoch: 28 September)

Date Brightness Start Highest point End Pass type
(mag) Time Alt. Az. Time Alt. Az. Time Alt. Az.
28 Sep -3.3 20:05:07 10° NW 20:08:22 48° NNE 20:10:02 24° E visible
28 Sep -0.9 21:42:01 10° WNW 21:42:57 16° W 21:42:57 16° W visible
29 Sep -3.2 20:53:35 10° WNW 20:56:37 51° SW 20:56:37 51° SW visible
30 Sep -3.8 20:05:13 10° WNW 20:08:34 85° SSW 20:10:18 26° ESE visible
30 Sep -0.5 21:43:08 10° WSW 21:43:13 10° WSW 21:43:13 10° WSW visible
01 Oct -3.7 19:16:51 10° WNW 19:20:10 65° NNE 19:23:30 10° ESE visible
01 Oct -1.8 20:54:02 10° W 20:56:40 22° SW 20:56:56 21° SW visible
02 Oct -2.4 20:05:17 10° WNW 20:08:22 34° SW 20:10:44 15° SSE visible
03 Oct -3.2 19:16:40 10° WNW 19:19:57 57° SW 19:23:14 10° SE visible
04 Oct -1.0 20:05:50 10° W 20:07:45 14° SW 20:09:38 10° SSW visible
05 Oct -1.4 19:16:37 10° W 19:19:19 23° SW 19:22:02 10° SSE visible
